Tracking 26218 objects as of 26-Sep-2022
HD Live streaming from Space Station
objects crossing your sky now

STELLA

Track STELLA now!
10-day predictions
STELLA is classified as:


NORAD ID: 22824
Int'l Code: 1993-061B
Perigee: 803.5 km
Apogee: 811.7 km
Inclination: 99.0 °
Period: 100.9 minutes
Semi major axis: 7178 km
RCS: 0.167 m2 (medium)
Launch date: September 26, 1993
Source: France (FR)
Launch site: FRENCH GUIANA (FRGUI)
aabbcc
Your satellite tracking list
Your tracking list is empty




NASA's NSSDC Master Catalog

Two Line Element Set (TLE):
1 22824U 93061B   22269.35310576 -.00000026  00000-0  83286-5 0  9999
2 22824  98.9605 292.8034 0005731 216.0122 270.4565 14.27393252510930
Source of the keplerian elements: AFSPC